• In Germany
  • List of Countries
  • For 7 days
  • Water Temperature
  • Satellite Maps
  • Weather Map
  • Weather Widgets
  • user-avatar
    Login

    Hourly Weather Uyutnyy

    Today, 24 September, Monday

    Time Temperature Precipitation Wind Pressure Humidity
    00:00 +21°C° 0 mm 4 mps 760 mmHg 65%
    01:00 +19°C° 0 mm 4 mps 760 mmHg 68%
    02:00 +18°C° 0 mm 4 mps 761 mmHg 70%
    03:00 +15°C° 0 mm 4 mps 761 mmHg 73%
    04:00 +14°C° 0 mm 4 mps 761 mmHg 74%
    05:00 +13°C° 0 mm 3 mps 762 mmHg 74%
    06:00 +12°C° 0 mm 3 mps 762 mmHg 75%
    07:00 +14°C° 0 mm 2 mps 762 mmHg 68%
    08:00 +15°C° 0 mm 2 mps 762 mmHg 60%
    09:00 +17°C° 0 mm 2 mps 762 mmHg 53%
    10:00 +18°C° 0 mm 2 mps 762 mmHg 47%
    11:00 +19°C° 0 mm 2 mps 762 mmHg 41%
    12:00 +21°C° 0 mm 2 mps 762 mmHg 35%
    13:00 +23°C° 0 mm 2 mps 761 mmHg 34%
    14:00 +24°C° 0 mm 2 mps 761 mmHg 33%
    15:00 +25°C° 0 mm 2 mps 760 mmHg 32%
    16:00 +24°C° 0 mm 2 mps 760 mmHg 37%
    17:00 +24°C° 0 mm 2 mps 759 mmHg 41%
    18:00 +23°C° 0 mm 2 mps 759 mmHg 46%
    19:00 +22°C° 0 mm 3 mps 759 mmHg 49%
    20:00 +21°C° 0 mm 3 mps 758 mmHg 52%
    21:00 +21°C° 0 mm 4 mps 758 mmHg 55%
    22:00 +21°C° 0 mm 4 mps 758 mmHg 56%
    23:00 +21°C° 0 mm 4 mps 758 mmHg 58%

    Tomorrow, 25 September, Tuesday

    Time Temperature Precipitation Wind Pressure Humidity
    00:00 +21°C° 0 mm 5 mps 757 mmHg 59%
    01:00 +20°C° 0 mm 4 mps 757 mmHg 62%
    02:00 +20°C° 0 mm 4 mps 757 mmHg 66%
    03:00 +19°C° 0 mm 4 mps 757 mmHg 69%
    04:00 +19°C° 0 mm 3 mps 756 mmHg 70%
    05:00 +19°C° 0 mm 3 mps 756 mmHg 72%
    06:00 +19°C° 0 mm 3 mps 756 mmHg 73%
    07:00 +20°C° 0 mm 3 mps 756 mmHg 68%
    08:00 +22°C° 0 mm 4 mps 756 mmHg 62%
    09:00 +25°C° 0 mm 4 mps 756 mmHg 57%
    10:00 +25°C° 0 mm 5 mps 756 mmHg 56%
    11:00 +25°C° 0 mm 5 mps 757 mmHg 56%
    12:00 +26°C° 0 mm 6 mps 757 mmHg 56%
    13:00 +22°C° 0 mm 6 mps 757 mmHg 59%
    14:00 +20°C° 0 mm 7 mps 758 mmHg 62%
    15:00 +17°C° 0 mm 7 mps 758 mmHg 65%
    16:00 +16°C° 0.1 mm 6 mps 759 mmHg 67%
    17:00 +15°C° 0.1 mm 6 mps 760 mmHg 70%
    18:00 +14°C° 0.1 mm 5 mps 760 mmHg 72%
    19:00 +14°C° 0.1 mm 5 mps 761 mmHg 72%
    20:00 +13°C° 0.1 mm 5 mps 761 mmHg 73%
    21:00 +13°C° 0.1 mm 5 mps 762 mmHg 73%
    22:00 +13°C° 0.1 mm 4 mps 762 mmHg 73%
    23:00 +13°C° 0.1 mm 4 mps 763 mmHg 72%

    Day after tomorrow, 26 September, Wednesday

    Time Temperature Precipitation Wind Pressure Humidity
    00:00 +13°C° 0.1 mm 4 mps 763 mmHg 72%
    01:00 +13°C° 0 mm 4 mps 763 mmHg 72%
    02:00 +13°C° 0 mm 4 mps 763 mmHg 71%
    03:00 +13°C° 0 mm 4 mps 764 mmHg 71%
    04:00 +12°C° 0 mm 4 mps 764 mmHg 73%
    05:00 +11°C° 0 mm 4 mps 764 mmHg 74%
    06:00 +10°C° 0 mm 3 mps 765 mmHg 75%
    07:00 +12°C° 0 mm 4 mps 765 mmHg 68%
    08:00 +13°C° 0 mm 4 mps 766 mmHg 62%
    09:00 +14°C° 0 mm 4 mps 766 mmHg 55%
    10:00 +15°C° 0 mm 4 mps 766 mmHg 50%
    11:00 +17°C° 0 mm 4 mps 766 mmHg 45%
    12:00 +18°C° 0 mm 4 mps 766 mmHg 40%
    13:00 +18°C° 0 mm 3 mps 766 mmHg 38%
    14:00 +18°C° 0 mm 3 mps 766 mmHg 37%
    15:00 +19°C° 0 mm 3 mps 766 mmHg 36%
    16:00 +18°C° 0 mm 3 mps 767 mmHg 38%
    17:00 +17°C° 0 mm 3 mps 767 mmHg 41%
    18:00 +16°C° 0 mm 3 mps 767 mmHg 44%
    19:00 +15°C° 0 mm 2 mps 767 mmHg 46%
    20:00 +14°C° 0 mm 2 mps 768 mmHg 49%
    21:00 +13°C° 0 mm 2 mps 768 mmHg 52%
    22:00 +13°C° 0 mm 2 mps 768 mmHg 53%
    23:00 +12°C° 0 mm 2 mps 768 mmHg 55%

    27 September, Thursday

    Time Temperature Precipitation Wind Pressure Humidity
    00:00 +12°C° 0 mm 1 mps 769 mmHg 56%
    01:00 +11°C° 0 mm 1 mps 769 mmHg 57%
    02:00 +11°C° 0 mm 1 mps 769 mmHg 58%
    03:00 +10°C° 0 mm 1 mps 769 mmHg 59%
    04:00 +10°C° 0 mm 1 mps 769 mmHg 60%
    05:00 +10°C° 0 mm 1 mps 769 mmHg 61%
    06:00 +9°C° 0 mm 1 mps 769 mmHg 61%
    07:00 +11°C° 0 mm 1 mps 769 mmHg 55%
    08:00 +13°C° 0 mm 1 mps 769 mmHg 50%
    09:00 +15°C° 0 mm 1 mps 769 mmHg 44%
    10:00 +16°C° 0 mm 1 mps 769 mmHg 40%
    11:00 +17°C° 0 mm 2 mps 768 mmHg 36%
    12:00 +18°C° 0 mm 2 mps 768 mmHg 32%
    13:00 +19°C° 0 mm 3 mps 767 mmHg 30%
    14:00 +19°C° 0 mm 3 mps 767 mmHg 29%
    15:00 +20°C° 0 mm 4 mps 766 mmHg 27%
    16:00 +19°C° 0 mm 3 mps 766 mmHg 29%
    17:00 +17°C° 0 mm 3 mps 766 mmHg 31%
    18:00 +16°C° 0 mm 2 mps 766 mmHg 33%
    19:00 +15°C° 0 mm 2 mps 766 mmHg 35%
    20:00 +13°C° 0 mm 3 mps 766 mmHg 37%
    21:00 +12°C° 0 mm 3 mps 766 mmHg 39%
    22:00 +12°C° 0 mm 2 mps 766 mmHg 41%
    23:00 +12°C° 0 mm 2 mps 766 mmHg 43%

    28 September, Friday

    Time Temperature Precipitation Wind Pressure Humidity
    00:00 +10°C° 0 mm 2 mps 766 mmHg 46%
    01:00 +10°C° 0 mm 2 mps 766 mmHg 47%
    02:00 +10°C° 0 mm 2 mps 766 mmHg 49%
    03:00 +9°C° 0 mm 2 mps 765 mmHg 51%
    04:00 +9°C° 0 mm 2 mps 765 mmHg 52%
    05:00 +9°C° 0 mm 2 mps 765 mmHg 53%
    06:00 +9°C° 0 mm 2 mps 765 mmHg 54%
    07:00 +11°C° 0 mm 3 mps 765 mmHg 48%
    08:00 +13°C° 0 mm 3 mps 765 mmHg 43%
    09:00 +16°C° 0 mm 3 mps 765 mmHg 37%
    10:00 +18°C° 0 mm 3 mps 765 mmHg 34%
    11:00 +19°C° 0 mm 4 mps 764 mmHg 30%
    12:00 +21°C° 0 mm 4 mps 764 mmHg 27%
    13:00 +22°C° 0 mm 3 mps 764 mmHg 26%
    14:00 +22°C° 0 mm 3 mps 763 mmHg 26%
    15:00 +24°C° 0 mm 3 mps 763 mmHg 26%
    16:00 +22°C° 0 mm 3 mps 762 mmHg 28%
    17:00 +20°C° 0 mm 2 mps 762 mmHg 31%
    18:00 +20°C° 0 mm 1 mps 762 mmHg 34%
    19:00 +19°C° 0 mm 1 mps 762 mmHg 36%
    20:00 +18°C° 0 mm 1 mps 762 mmHg 37%
    21:00 +16°C° 0 mm 1 mps 762 mmHg 39%
    22:00 +16°C° 0 mm 1 mps 762 mmHg 42%
    23:00 +15°C° 0 mm 1 mps 761 mmHg 44%

    29 September, Saturday

    Time Temperature Precipitation Wind Pressure Humidity
    00:00 +15°C° 0 mm 1 mps 761 mmHg 47%
    01:00 +15°C° 0 mm 1 mps 761 mmHg 49%
    02:00 +14°C° 0 mm 1 mps 761 mmHg 51%
    03:00 +14°C° 0 mm 1 mps 761 mmHg 53%
    04:00 +14°C° 0 mm 1 mps 761 mmHg 54%
    05:00 +14°C° 0 mm 1 mps 761 mmHg 55%
    06:00 +13°C° 0 mm 1 mps 761 mmHg 57%
    07:00 +15°C° 0 mm 1 mps 761 mmHg 50%
    08:00 +17°C° 0 mm 2 mps 761 mmHg 44%
    09:00 +20°C° 0 mm 2 mps 761 mmHg 38%
    10:00 +21°C° 0 mm 2 mps 760 mmHg 36%
    11:00 +24°C° 0 mm 2 mps 760 mmHg 34%
    12:00 +26°C° 0 mm 2 mps 759 mmHg 31%
    13:00 +26°C° 0 mm 2 mps 759 mmHg 32%
    14:00 +27°C° 0 mm 2 mps 759 mmHg 32%
    15:00 +27°C° 0 mm 2 mps 758 mmHg 33%
    16:00 +26°C° 0 mm 2 mps 758 mmHg 36%
    17:00 +25°C° 0 mm 2 mps 758 mmHg 40%
    18:00 +24°C° 0 mm 2 mps 758 mmHg 43%
    19:00 +24°C° 0 mm 2 mps 758 mmHg 45%
    20:00 +23°C° 0 mm 2 mps 758 mmHg 48%
    21:00 +21°C° 0 mm 2 mps 758 mmHg 51%
    22:00 +21°C° 0 mm 2 mps 758 mmHg 54%
    23:00 +20°C° 0 mm 2 mps 758 mmHg 58%
    Show more